Orbital Elements at Epoch 2451943.5 (2001-Feb-03.0) TDB
Reference: JPL 12 (heliocentric ecliptic J2000)
Element | Value | Uncertainty (1-sigma) | Units |
e | .7753789280052502 | 0.054687 | |
a | 1.663866162461334 | 0.3421 | au |
q | .3737394010678554 | 0.014168 | au |
i | 4.95654724000439 | 0.30309 | deg |
node | 46.64215596556536 | 5.118 | deg |
peri | 218.6393108200826 | 5.8073 | deg |
M | 336.2883463387281 | 8.4113 | deg |
tp | 2451995.133950443981 (2001-Mar-26.63395044) | 2.3921 | TDB |
period | 783.927701769413 2.15 | 241.77 0.6619 | d yr |
n | .4592260219755463 | 0.14163 | deg/d |
Q | 2.953992923854813 | 0.60735 | au |
|
| | Orbit Determination Parameters
Additional Information
|